CZ-6A DEB, 54406

Orbit data source: Space-Track

CZ-6A DEB, 54406 is space debris in SSO originally from a launch on Fri, 11 Nov 2022 UTC launched from the Taiyaun Space Center, China (TSC). Debris objects in space refer to the collection of defunct objects orbiting the Earth. Examples of debris include non-operational satellites, rocket bodies, and fragments generated from explosions, collisions, or faulty payload assembly.

Loading next visibility...
Identifier
54406, 2022-151EE
Orbit
SSO
Country
Flag of CNCN / PRC
Related business
Manufacturer
SAST
Mission
Spacecraft
Bus & Motor
Unknown
Mass
Unknown
Launch date (UTC)
2022-11-11 (3 years ago)
Launch vehicle
Unknown
Launch site
Taiyaun Space Center, China (TSC)
Object type
Payload
Rocket body
Debris
Shape & HBR
Unknown shape, 0.1 m
Radar Cross Section
Small (<0.1 m²)

Expand to show TLE details & history
Last TLE update: 9 hours ago

TLE from 9 hours ago
0 CZ-6A DEB
1 54406U 22151EE  26130.33566830  .00002893  00000-0  83112-3 0  9996
2 54406  98.6037 151.4318 0107883 163.3054 197.1732 14.42283393182455
Epoch: 2026-05-10T08:03Z
TLE epoch observation values (Epoch: 2026-05-10T08:03:21.741Z)
Latitude
0.00002°
Longitude
162.45099°
Altitude
827.481 km
Speed
7.401 km/s
True Right ascension
10h 05m 43s
True Declination
0° 00' 00"
Sunlit
Object was in daylight at epoch
Visualization orbit readout
Latitude
Unknown
Longitude
Unknown
Altitude
Unknown
Speed
Unknown
Apparent Right ascension
Unknown
Apparent Declination
Unknown
Sunlit
N/A
Visualization observer readout
Local Sidereal Time
01:09:05
Azimuth
Unknown
Elevation
Unknown
Doppler factor
Unknown
Orbital elements
Apogee altitude
824.967 km
Perigee altitude
671.208 km
Semi-major axis
7,126.224 km
Eccentricity
0.01079
Inclination
98.6037°
RAAN
151.4318°
Arg. of periapsis
163.3054°
True anomaly
196.81283°
Mean anomaly
197.1732°
Eccentric anomaly
196.99255°
Mean motion
3.6079 °/min
Orbital period
99.78 mins
BSTAR
0.00083112
Loading maneuver chart data...
Computing Atmospheric mass density...
Loading historical data...
Loading historical data...
Loading historical data...
Loading historical data...
Loading historical data...
Loading historical data...
Loading historical data...

Documentation

Showing up to 5 results
|